Kosmos-2545

operational
NORAD ID: 45358 Int'l Des: 2020-018 Owner: VVKOV/IACG Country: RU Constellation: GLONASS
MEOCIRCULAR

About Kosmos-2545

Description loading...

Live Position

Loading 3D Globe...

Upcoming Passes

Altitude History

Altitude vs Time

uPlot chart will show altitude changes over time

Two-Line Element Set

1 45358U 20018A 25296.24831740 -.00000042 00000-0 00000-0 0 9996
2 45358 64.4974 320.7418 0012369 243.0625 116.8635 2.13102618 43617
Epoch: Oct 23, 2025 • Age: 63 hours

Current Status

Altitude 19114.0 km
Velocity 3.96 km/s
Sub-Earth Point -41.87°S, 170.5°E
Launch Date Mar 16, 2020
Age 5.6 years
Type other

Technical Details

Classification Payload
Mass 1450.00 kg
Dry Mass 1200.00 kg
Total Mass 1450.00 kg
Length 4.00 m
Diameter 1.50 m
Span 7.80 m
Shape Cyl + Ant + 2 Pan
Manufacturer RESH
Bus Type Uragan
Phase Status In Orbit
Owner/State VVKOV/IACG/RU

Large Constellations

Loading constellations...